Time,TemperatureF,DewpointF,PressureIn,WindDirection,WindDirectionDegrees,WindSpeedMPH,WindSpeedGustMPH,Humidity,HourlyPrecipIn,Conditions,Clouds,dailyrainin,SoftwareType,DateUTC
2013-08-18 00:14:00,62.1,60.0,30.01,ESE,112,0.0,-999.0,93,-99.99,,,0.00,Acu-Link.com,2013-08-18 05:14:00,
2013-08-18 00:29:00,61.5,59.8,30.00,ESE,112,0.0,-999.0,94,-99.99,,,0.00,Acu-Link.com,2013-08-18 05:29:00,
2013-08-18 00:45:00,61.3,59.9,30.00,ESE,112,0.0,-999.0,95,-99.99,,,0.00,Acu-Link.com,2013-08-18 05:45:00,
2013-08-18 01:00:00,61.0,59.6,30.01,ESE,112,0.0,-999.0,95,-99.99,,,0.00,Acu-Link.com,2013-08-18 06:00:00,
2013-08-18 01:15:00,61.0,59.8,30.01,ESE,112,0.0,-999.0,96,-99.99,,,0.00,Acu-Link.com,2013-08-18 06:15:00,
2013-08-18 01:31:00,60.8,59.7,30.01,ESE,112,0.0,-999.0,96,-99.99,,,0.00,Acu-Link.com,2013-08-18 06:31:00,
2013-08-18 01:46:00,60.6,59.5,30.01,SSE,157,0.0,-999.0,96,-99.99,,,0.00,Acu-Link.com,2013-08-18 06:46:00,
2013-08-18 02:01:00,60.4,59.3,30.01,ESE,112,0.0,-999.0,96,-99.99,,,0.00,Acu-Link.com,2013-08-18 07:01:00,
2013-08-18 02:16:00,60.3,59.2,30.01,ESE,112,0.0,-999.0,96,-99.99,,,0.00,Acu-Link.com,2013-08-18 07:16:00,
2013-08-18 02:32:00,60.1,58.7,30.01,ESE,112,0.0,-999.0,95,-99.99,,,0.00,Acu-Link.com,2013-08-18 07:32:00,
2013-08-18 02:47:00,60.1,59.0,30.00,ESE,112,0.0,-999.0,96,-99.99,,,0.00,Acu-Link.com,2013-08-18 07:47:00,
2013-08-18 03:02:00,59.9,58.5,30.00,ESE,112,0.0,-999.0,95,-99.99,,,0.00,Acu-Link.com,2013-08-18 08:02:00,
2013-08-18 03:18:00,59.7,58.3,30.01,ESE,112,0.0,-999.0,95,-99.99,,,0.00,Acu-Link.com,2013-08-18 08:18:00,
2013-08-18 03:33:00,59.5,58.1,30.00,ESE,112,0.0,-999.0,95,-99.99,,,0.00,Acu-Link.com,2013-08-18 08:33:00,
2013-08-18 03:49:00,59.5,58.4,30.00,ESE,112,0.0,-999.0,96,-99.99,,,0.00,Acu-Link.com,2013-08-18 08:49:00,
2013-08-18 04:04:00,59.2,58.1,30.01,ESE,112,0.0,-999.0,96,-99.99,,,0.00,Acu-Link.com,2013-08-18 09:04:00,
2013-08-18 04:19:00,59.2,58.3,30.00,ESE,112,0.0,-999.0,97,-99.99,,,0.00,Acu-Link.com,2013-08-18 09:19:00,
2013-08-18 04:34:00,59.0,57.9,30.00,ESE,112,0.0,-999.0,96,-99.99,,,0.00,Acu-Link.com,2013-08-18 09:34:00,
2013-08-18 04:49:00,59.4,58.8,30.01,East,90,0.0,-999.0,98,-99.99,,,0.00,Acu-Link.com,2013-08-18 09:49:00,
2013-08-18 05:04:00,59.5,58.9,30.00,ESE,112,0.0,-999.0,98,-99.99,,,0.00,Acu-Link.com,2013-08-18 10:04:00,
2013-08-18 05:20:00,59.7,59.4,30.01,ESE,112,0.0,-999.0,99,-99.99,,,0.00,Acu-Link.com,2013-08-18 10:20:00,
2013-08-18 05:35:00,60.1,59.8,30.01,ENE,67,0.0,-999.0,99,-99.99,,,0.00,Acu-Link.com,2013-08-18 10:35:00,
2013-08-18 05:50:00,60.1,59.8,30.01,East,90,0.0,-999.0,99,-99.99,,,0.00,Acu-Link.com,2013-08-18 10:50:00,
2013-08-18 06:06:00,59.9,59.6,30.01,ESE,112,0.0,-999.0,99,-99.99,,,0.00,Acu-Link.com,2013-08-18 11:06:00,
2013-08-18 06:21:00,59.7,59.4,30.02,ESE,112,0.0,-999.0,99,-99.99,,,0.00,Acu-Link.com,2013-08-18 11:21:00,
2013-08-18 06:37:00,59.4,59.1,30.02,ESE,112,0.0,-999.0,99,-99.99,,,0.00,Acu-Link.com,2013-08-18 11:37:00,
2013-08-18 06:52:00,59.4,58.8,30.02,ESE,112,0.0,-999.0,98,-99.99,,,0.00,Acu-Link.com,2013-08-18 11:52:00,
2013-08-18 07:07:00,59.4,58.8,30.03,ESE,112,0.0,-999.0,98,-99.99,,,0.00,Acu-Link.com,2013-08-18 12:07:00,
2013-08-18 07:23:00,60.4,59.8,30.03,ESE,112,0.0,-999.0,98,-99.99,,,0.00,Acu-Link.com,2013-08-18 12:23:00,
2013-08-18 07:38:00,61.5,60.9,30.03,ESE,112,0.0,-999.0,98,-99.99,,,0.00,Acu-Link.com,2013-08-18 12:38:00,
2013-08-18 07:53:00,63.7,63.1,30.03,ESE,112,0.0,-999.0,98,-99.99,,,0.00,Acu-Link.com,2013-08-18 12:53:00,
2013-08-18 08:09:00,65.3,63.8,30.04,SE,135,2.7,-999.0,95,-99.99,,,0.00,Acu-Link.com,2013-08-18 13:09:00,
2013-08-18 08:24:00,67.1,65.0,30.04,SE,135,1.7,-999.0,93,-99.99,,,0.00,Acu-Link.com,2013-08-18 13:24:00,
2013-08-18 08:39:00,68.5,65.4,30.05,ESE,112,0.0,-999.0,90,-99.99,,,0.00,Acu-Link.com,2013-08-18 13:39:00,
2013-08-18 08:54:00,69.6,65.6,30.05,ESE,112,1.1,-999.0,87,-99.99,,,0.00,Acu-Link.com,2013-08-18 13:54:00,
2013-08-18 09:10:00,70.3,65.6,30.05,ESE,112,3.2,-999.0,85,-99.99,,,0.00,Acu-Link.com,2013-08-18 14:10:00,
2013-08-18 09:25:00,71.4,66.0,30.05,SSE,157,2.7,-999.0,83,-99.99,,,0.00,Acu-Link.com,2013-08-18 14:25:00,
2013-08-18 09:40:00,72.7,65.4,30.05,South,180,3.2,-999.0,78,-99.99,,,0.00,Acu-Link.com,2013-08-18 14:40:00,
2013-08-18 09:55:00,73.4,67.2,30.05,East,90,2.2,-999.0,81,-99.99,,,0.00,Acu-Link.com,2013-08-18 14:55:00,
2013-08-18 10:10:00,74.7,67.0,30.05,ESE,112,2.2,-999.0,77,-99.99,,,0.00,Acu-Link.com,2013-08-18 15:10:00,
2013-08-18 10:25:00,75.7,67.2,30.05,ESE,112,2.7,-999.0,75,-99.99,,,0.00,Acu-Link.com,2013-08-18 15:25:00,
2013-08-18 10:41:00,75.9,65.4,30.05,ENE,67,2.2,-999.0,70,-99.99,,,0.00,Acu-Link.com,2013-08-18 15:41:00,
2013-08-18 10:56:00,76.3,65.4,30.06,ESE,112,1.7,-999.0,69,-99.99,,,0.00,Acu-Link.com,2013-08-18 15:56:00,
2013-08-18 11:11:00,75.7,65.2,30.06,North,0,1.7,-999.0,70,-99.99,,,0.00,Acu-Link.com,2013-08-18 16:11:00,
2013-08-18 11:26:00,77.4,64.7,30.05,WNW,292,3.7,-999.0,65,-99.99,,,0.00,Acu-Link.com,2013-08-18 16:26:00,
2013-08-18 11:42:00,77.9,64.3,30.05,NW,315,1.7,-999.0,63,-99.99,,,0.00,Acu-Link.com,2013-08-18 16:42:00,
2013-08-18 11:57:00,78.8,63.7,30.05,ESE,112,2.7,-999.0,60,-99.99,,,0.00,Acu-Link.com,2013-08-18 16:57:00,
2013-08-18 12:12:00,79.5,62.9,30.05,ESE,112,3.2,-999.0,57,-99.99,,,0.00,Acu-Link.com,2013-08-18 17:12:00,
2013-08-18 12:28:00,80.1,64.9,30.04,ESE,112,2.2,-999.0,60,-99.99,,,0.00,Acu-Link.com,2013-08-18 17:28:00,
2013-08-18 12:43:00,79.5,64.9,30.04,SE,135,2.2,-999.0,61,-99.99,,,0.00,Acu-Link.com,2013-08-18 17:43:00,
2013-08-18 12:58:00,80.8,63.6,30.04,WNW,292,2.7,-999.0,56,-99.99,,,0.00,Acu-Link.com,2013-08-18 17:58:00,
2013-08-18 13:14:00,80.8,65.1,30.03,East,90,3.7,-999.0,59,-99.99,,,0.00,Acu-Link.com,2013-08-18 18:14:00,
2013-08-18 13:29:00,81.3,63.6,30.03,NE,45,2.2,-999.0,55,-99.99,,,0.00,Acu-Link.com,2013-08-18 18:29:00,
2013-08-18 13:44:00,81.9,64.6,30.02,NNE,22,2.7,-999.0,56,-99.99,,,0.00,Acu-Link.com,2013-08-18 18:44:00,
2013-08-18 14:00:00,81.3,66.1,30.02,ESE,112,2.2,-999.0,60,-99.99,,,0.00,Acu-Link.com,2013-08-18 19:00:00,
2013-08-18 14:15:00,81.3,65.1,30.02,East,90,2.2,-999.0,58,-99.99,,,0.00,Acu-Link.com,2013-08-18 19:15:00,
2013-08-18 14:30:00,79.2,64.6,30.01,West,270,1.7,-999.0,61,-99.99,,,0.00,Acu-Link.com,2013-08-18 19:30:00,
2013-08-18 14:45:00,81.7,63.9,30.01,NNW,337,4.7,-999.0,55,-99.99,,,0.00,Acu-Link.com,2013-08-18 19:45:00,
2013-08-18 15:00:00,81.5,63.2,30.00,NE,45,4.7,-999.0,54,-99.99,,,0.00,Acu-Link.com,2013-08-18 20:00:00,
2013-08-18 15:16:00,79.3,64.2,30.00,ESE,112,2.7,-999.0,60,-99.99,,,0.00,Acu-Link.com,2013-08-18 20:16:00,
2013-08-18 15:31:00,82.0,66.2,29.99,ESE,112,1.7,-999.0,59,-99.99,,,0.00,Acu-Link.com,2013-08-18 20:31:00,
2013-08-18 15:46:00,81.1,64.4,30.00,East,90,3.2,-999.0,57,-99.99,,,0.00,Acu-Link.com,2013-08-18 20:46:00,
2013-08-18 16:01:00,81.7,66.0,29.99,SSE,157,1.7,-999.0,59,-99.99,,,0.00,Acu-Link.com,2013-08-18 21:01:00,
2013-08-18 16:17:00,81.1,64.9,29.99,ESE,112,2.2,-999.0,58,-99.99,,,0.00,Acu-Link.com,2013-08-18 21:17:00,
2013-08-18 16:32:00,81.1,62.3,29.99,South,180,2.2,-999.0,53,-99.99,,,0.00,Acu-Link.com,2013-08-18 21:32:00,
2013-08-18 16:47:00,82.2,62.2,29.98,South,180,1.7,-999.0,51,-99.99,,,0.00,Acu-Link.com,2013-08-18 21:47:00,
2013-08-18 17:02:00,82.0,63.2,29.98,South,180,1.7,-999.0,53,-99.99,,,0.00,Acu-Link.com,2013-08-18 22:02:00,
2013-08-18 17:17:00,80.8,62.6,29.98,NNE,22,2.7,-999.0,54,-99.99,,,0.00,Acu-Link.com,2013-08-18 22:17:00,
2013-08-18 17:32:00,80.6,62.9,29.98,NE,45,1.7,-999.0,55,-99.99,,,0.00,Acu-Link.com,2013-08-18 22:32:00,
2013-08-18 17:47:00,79.9,64.3,29.98,SSE,157,3.7,-999.0,59,-99.99,,,0.00,Acu-Link.com,2013-08-18 22:47:00,
2013-08-18 18:03:00,79.2,63.1,29.98,ESE,112,1.1,-999.0,58,-99.99,,,0.00,Acu-Link.com,2013-08-18 23:03:00,
2013-08-18 18:18:00,78.8,62.8,29.97,South,180,2.2,-999.0,58,-99.99,,,0.00,Acu-Link.com,2013-08-18 23:18:00,
2013-08-18 18:33:00,78.3,62.8,29.97,South,180,3.2,-999.0,59,-99.99,,,0.00,Acu-Link.com,2013-08-18 23:33:00,
2013-08-18 18:48:00,77.7,64.1,29.96,SE,135,0.0,-999.0,63,-99.99,,,0.00,Acu-Link.com,2013-08-18 23:48:00,
2013-08-18 19:03:00,77.2,64.1,29.97,North,0,0.0,-999.0,64,-99.99,,,0.00,Acu-Link.com,2013-08-19 00:03:00,
2013-08-18 19:19:00,76.6,65.7,29.97,NNE,22,0.0,-999.0,69,-99.99,,,0.00,Acu-Link.com,2013-08-19 00:19:00,
2013-08-18 19:34:00,75.6,65.9,29.97,NNE,22,0.0,-999.0,72,-99.99,,,0.00,Acu-Link.com,2013-08-19 00:34:00,
2013-08-18 19:49:00,73.9,66.2,29.97,NNE,22,0.0,-999.0,77,-99.99,,,0.00,Acu-Link.com,2013-08-19 00:49:00,
2013-08-18 20:04:00,71.8,66.3,29.97,NNE,22,0.0,-999.0,83,-99.99,,,0.00,Acu-Link.com,2013-08-19 01:04:00,
2013-08-18 20:20:00,71.1,66.4,29.98,NNE,22,0.0,-999.0,85,-99.99,,,0.00,Acu-Link.com,2013-08-19 01:20:00,
2013-08-18 20:35:00,69.8,65.7,29.98,NNE,22,0.0,-999.0,87,-99.99,,,0.00,Acu-Link.com,2013-08-19 01:35:00,
2013-08-18 20:50:00,69.1,65.1,29.98,NNE,22,0.0,-999.0,87,-99.99,,,0.00,Acu-Link.com,2013-08-19 01:50:00,
2013-08-18 21:05:00,68.0,65.0,29.98,NNE,22,0.0,-999.0,90,-99.99,,,0.00,Acu-Link.com,2013-08-19 02:05:00,
2013-08-18 21:20:00,67.1,64.1,29.99,NNE,22,0.0,-999.0,90,-99.99,,,0.00,Acu-Link.com,2013-08-19 02:20:00,
2013-08-18 21:35:00,66.6,64.2,30.00,NNE,22,0.0,-999.0,92,-99.99,,,0.00,Acu-Link.com,2013-08-19 02:35:00,
2013-08-18 21:51:00,66.6,63.6,30.00,NNE,22,0.0,-999.0,90,-99.99,,,0.00,Acu-Link.com,2013-08-19 02:51:00,
2013-08-18 22:06:00,65.8,63.7,30.00,NNE,22,0.0,-999.0,93,-99.99,,,0.00,Acu-Link.com,2013-08-19 03:06:00,
2013-08-18 22:21:00,65.3,63.5,30.00,NNE,22,0.0,-999.0,94,-99.99,,,0.00,Acu-Link.com,2013-08-19 03:21:00,
2013-08-18 22:36:00,65.1,63.3,30.00,NNE,22,0.0,-999.0,94,-99.99,,,0.00,Acu-Link.com,2013-08-19 03:36:00,
2013-08-18 22:51:00,64.8,63.3,30.01,NNE,22,0.0,-999.0,95,-99.99,,,0.00,Acu-Link.com,2013-08-19 03:51:00,
2013-08-18 23:06:00,64.8,63.3,30.01,NNE,22,0.0,-999.0,95,-99.99,,,0.00,Acu-Link.com,2013-08-19 04:06:00,
2013-08-18 23:21:00,64.4,62.9,30.01,NNE,22,0.0,-999.0,95,-99.99,,,0.00,Acu-Link.com,2013-08-19 04:21:00,
2013-08-18 23:37:00,64.2,62.7,30.01,NNE,22,0.0,-999.0,95,-99.99,,,0.00,Acu-Link.com,2013-08-19 04:37:00,
2013-08-18 23:52:00,64.0,62.8,30.01,NNE,22,0.0,-999.0,96,-99.99,,,0.00,Acu-Link.com,2013-08-19 04:52:00,